• In Belarus
  • List of Countries
  • For 7 days
  • Water Temperature
  • Weather Map
  • Weather Widgets
  • user-avatar
    Login

    Hourly Weather Nesebyr

    Today, 26 January, Sunday

    Time Temperature Precipitation Wind Pressure Humidity
    00:00 +4°C° 0 mm 3 mps 765 mmHg 82%
    01:00 +4°C° 0 mm 3 mps 765 mmHg 82%
    02:00 +4°C° 0 mm 3 mps 765 mmHg 82%
    03:00 +4°C° 0 mm 3 mps 765 mmHg 83%
    04:00 +4°C° 0 mm 3 mps 765 mmHg 83%
    05:00 +3°C° 0 mm 3 mps 765 mmHg 83%
    06:00 +3°C° 0 mm 3 mps 765 mmHg 82%
    07:00 +4°C° 0 mm 2 mps 766 mmHg 81%
    08:00 +3°C° 0 mm 3 mps 766 mmHg 78%
    09:00 +5°C° 0 mm 3 mps 766 mmHg 71%
    10:00 +9°C° 0 mm 3 mps 766 mmHg 64%
    11:00 +12°C° 0 mm 2 mps 766 mmHg 57%
    12:00 +13°C° 0 mm 2 mps 765 mmHg 55%
    13:00 +13°C° 0 mm 2 mps 765 mmHg 53%
    14:00 +15°C° 0 mm 2 mps 765 mmHg 49%
    15:00 +13°C° 0 mm 2 mps 765 mmHg 55%
    16:00 +12°C° 0 mm 1 mps 765 mmHg 61%
    17:00 +11°C° 0 mm 1 mps 765 mmHg 67%
    18:00 +10°C° 0 mm 1 mps 765 mmHg 70%
    19:00 +10°C° 0 mm 1 mps 765 mmHg 74%
    20:00 +9°C° 0 mm 1 mps 765 mmHg 77%
    21:00 +9°C° 0 mm 1 mps 765 mmHg 80%
    22:00 +9°C° 0 mm 1 mps 764 mmHg 82%
    23:00 +9°C° 0 mm 1 mps 764 mmHg 85%

    Tomorrow, 27 January, Monday

    Time Temperature Precipitation Wind Pressure Humidity
    00:00 +9°C° 0 mm 1 mps 764 mmHg 86%
    01:00 +9°C° 0 mm 1 mps 764 mmHg 88%
    02:00 +9°C° 0 mm 1 mps 764 mmHg 89%
    03:00 +9°C° 0 mm 1 mps 763 mmHg 89%
    04:00 +9°C° 0 mm 2 mps 762 mmHg 90%
    05:00 +9°C° 0 mm 2 mps 762 mmHg 90%
    06:00 +9°C° 0 mm 2 mps 762 mmHg 91%
    07:00 +9°C° 0 mm 2 mps 762 mmHg 91%
    08:00 +9°C° 0 mm 2 mps 762 mmHg 91%
    09:00 +10°C° 0 mm 3 mps 762 mmHg 86%
    10:00 +12°C° 0 mm 4 mps 761 mmHg 81%
    11:00 +13°C° 0 mm 4 mps 761 mmHg 76%
    12:00 +14°C° 0 mm 5 mps 761 mmHg 75%
    13:00 +14°C° 0 mm 5 mps 760 mmHg 73%
    14:00 +14°C° 0 mm 5 mps 760 mmHg 72%
    15:00 +14°C° 0.2 mm 4 mps 759 mmHg 76%
    16:00 +13°C° 0.2 mm 3 mps 759 mmHg 80%
    17:00 +13°C° 0.2 mm 2 mps 759 mmHg 84%
    18:00 +13°C° 2.3 mm 2 mps 759 mmHg 88%
    19:00 +12°C° 2.3 mm 2 mps 759 mmHg 91%
    20:00 +12°C° 2.3 mm 2 mps 758 mmHg 95%
    21:00 +12°C° 1.9 mm 2 mps 758 mmHg 94%
    22:00 +10°C° 1.9 mm 2 mps 758 mmHg 94%
    23:00 +10°C° 1.9 mm 2 mps 758 mmHg 93%

    Day after tomorrow, 28 January, Tuesday

    Time Temperature Precipitation Wind Pressure Humidity
    00:00 +9°C° 2.2 mm 3 mps 757 mmHg 93%
    01:00 +9°C° 2.2 mm 3 mps 757 mmHg 94%
    02:00 +7°C° 2.2 mm 4 mps 757 mmHg 94%
    03:00 +7°C° 1.6 mm 4 mps 757 mmHg 93%
    04:00 +7°C° 1.6 mm 4 mps 756 mmHg 93%
    05:00 +6°C° 1.6 mm 5 mps 756 mmHg 92%
    06:00 +6°C° 0.4 mm 4 mps 756 mmHg 91%
    07:00 +6°C° 0.4 mm 4 mps 757 mmHg 89%
    08:00 +7°C° 0.4 mm 3 mps 757 mmHg 88%
    09:00 +7°C° 0.1 mm 4 mps 757 mmHg 83%
    10:00 +8°C° 0.1 mm 4 mps 757 mmHg 79%
    11:00 +9°C° 0.1 mm 5 mps 758 mmHg 74%
    12:00 +9°C° 0 mm 5 mps 757 mmHg 70%
    13:00 +10°C° 0 mm 5 mps 757 mmHg 66%
    14:00 +12°C° 0 mm 5 mps 757 mmHg 62%
    15:00 +11°C° 0 mm 4 mps 757 mmHg 66%
    16:00 +11°C° 0 mm 3 mps 757 mmHg 70%
    17:00 +10°C° 0 mm 3 mps 757 mmHg 74%
    18:00 +9°C° 0 mm 3 mps 757 mmHg 77%
    19:00 +9°C° 0 mm 3 mps 757 mmHg 81%
    20:00 +8°C° 0 mm 3 mps 757 mmHg 84%
    21:00 +8°C° 0 mm 3 mps 757 mmHg 85%
    22:00 +8°C° 0 mm 3 mps 757 mmHg 87%
    23:00 +8°C° 0 mm 3 mps 757 mmHg 88%

    29 January, Wednesday

    Time Temperature Precipitation Wind Pressure Humidity
    00:00 +7°C° 0 mm 3 mps 756 mmHg 88%
    01:00 +7°C° 0 mm 3 mps 756 mmHg 89%
    02:00 +7°C° 0 mm 3 mps 755 mmHg 89%
    03:00 +7°C° 0 mm 3 mps 755 mmHg 89%
    04:00 +7°C° 0 mm 3 mps 755 mmHg 89%
    05:00 +6°C° 0 mm 4 mps 754 mmHg 89%
    06:00 +6°C° 0 mm 4 mps 754 mmHg 89%
    07:00 +7°C° 0 mm 3 mps 754 mmHg 89%
    08:00 +8°C° 0 mm 3 mps 754 mmHg 89%
    09:00 +8°C° 0 mm 4 mps 754 mmHg 83%
    10:00 +10°C° 0 mm 5 mps 754 mmHg 77%
    11:00 +11°C° 0 mm 6 mps 754 mmHg 71%
    12:00 +11°C° 0 mm 6 mps 754 mmHg 72%
    13:00 +10°C° 0 mm 6 mps 754 mmHg 72%
    14:00 +10°C° 0 mm 5 mps 755 mmHg 73%
    15:00 +10°C° 0 mm 4 mps 755 mmHg 73%
    16:00 +10°C° 0 mm 3 mps 755 mmHg 73%
    17:00 +9°C° 0 mm 2 mps 756 mmHg 73%
    18:00 +9°C° 0 mm 2 mps 756 mmHg 76%
    19:00 +9°C° 0 mm 1 mps 756 mmHg 79%
    20:00 +9°C° 0 mm 1 mps 757 mmHg 81%
    21:00 +9°C° 0 mm 1 mps 757 mmHg 82%
    22:00 +9°C° 0 mm 1 mps 757 mmHg 82%
    23:00 +8°C° 0 mm 1 mps 757 mmHg 82%

    30 January, Thursday

    Time Temperature Precipitation Wind Pressure Humidity
    00:00 +8°C° 0.1 mm 1 mps 756 mmHg 84%
    01:00 +8°C° 0.1 mm 1 mps 756 mmHg 86%
    02:00 +7°C° 0.1 mm 2 mps 756 mmHg 88%
    03:00 +8°C° 0.5 mm 1 mps 756 mmHg 89%
    04:00 +7°C° 0.5 mm 1 mps 756 mmHg 90%
    05:00 +7°C° 0.5 mm 1 mps 756 mmHg 91%
    06:00 +7°C° 0.1 mm 1 mps 756 mmHg 91%
    07:00 +7°C° 0.1 mm 1 mps 756 mmHg 90%
    08:00 +7°C° 0.1 mm 1 mps 757 mmHg 89%
    09:00 +7°C° 0 mm 2 mps 757 mmHg 83%
    10:00 +7°C° 0 mm 3 mps 757 mmHg 76%
    11:00 +6°C° 0 mm 4 mps 757 mmHg 69%
    12:00 +7°C° 0 mm 4 mps 757 mmHg 66%
    13:00 +7°C° 0 mm 5 mps 757 mmHg 62%
    14:00 +7°C° 0 mm 5 mps 757 mmHg 59%
    15:00 +6°C° 0 mm 5 mps 757 mmHg 60%
    16:00 +6°C° 0 mm 5 mps 757 mmHg 61%
    17:00 +5°C° 0 mm 5 mps 758 mmHg 63%
    18:00 +5°C° 0 mm 4 mps 758 mmHg 65%
    19:00 +4°C° 0 mm 4 mps 759 mmHg 68%
    20:00 +3°C° 0 mm 4 mps 759 mmHg 70%
    21:00 +3°C° 0 mm 4 mps 759 mmHg 70%
    22:00 +3°C° 0 mm 4 mps 760 mmHg 70%
    23:00 +1°C° 0 mm 5 mps 760 mmHg 70%

    31 January, Friday

    Time Temperature Precipitation Wind Pressure Humidity
    00:00 +1°C° 0 mm 4 mps 760 mmHg 71%
    01:00 0°C° 0 mm 4 mps 761 mmHg 73%
    02:00 0°C° 0 mm 4 mps 761 mmHg 74%
    03:00 +1°C° 0 mm 3 mps 761 mmHg 74%
    04:00 0°C° 0 mm 3 mps 761 mmHg 75%
    05:00 0°C° 0 mm 3 mps 762 mmHg 75%
    06:00 0°C° 0 mm 3 mps 762 mmHg 74%
    07:00 0°C° 0 mm 3 mps 763 mmHg 73%
    08:00 0°C° 0 mm 3 mps 763 mmHg 73%
    09:00 +2°C° 0 mm 3 mps 763 mmHg 66%
    10:00 +4°C° 0 mm 3 mps 763 mmHg 59%
    11:00 +5°C° 0 mm 3 mps 764 mmHg 52%
    12:00 +7°C° 0 mm 3 mps 763 mmHg 51%
    13:00 +7°C° 0 mm 3 mps 763 mmHg 50%
    14:00 +7°C° 0 mm 4 mps 762 mmHg 49%
    15:00 +7°C° 0 mm 3 mps 762 mmHg 52%
    16:00 +7°C° 0 mm 3 mps 762 mmHg 55%
    17:00 +6°C° 0 mm 2 mps 762 mmHg 58%
    18:00 +5°C° 0 mm 2 mps 762 mmHg 60%
    19:00 +3°C° 0 mm 3 mps 762 mmHg 62%
    20:00 +2°C° 0 mm 3 mps 761 mmHg 63%
    21:00 +3°C° 0 mm 3 mps 761 mmHg 63%
    22:00 +3°C° 0 mm 3 mps 761 mmHg 63%
    23:00 +3°C° 0 mm 3 mps 761 mmHg 63%
    Show more